Location: Sangrey
(48.2845°N, 109.8206°W)
Time: 23:36:18
(UTC+00:00)

Envisat - Pass Details

Date: 26 January 2022
Orbit: 764 x 765 km, 98.2° (Epoch: 22 May)

Event Time Altitude Azimuth Distance (km) Brightness Sun altitude
Rises 00:33:17 0° 208° (SSW) 3,218 7.2 -4.7°
Reaches altitude 10° 00:36:16 10° 227° (SW) 2,298 6.9 -5.1°
Maximum altitude 00:39:44 18° 271° (W) 1,793 6.1 -5.6°
Drops below altitude 10° 00:43:13 10° 314° (NW) 2,309 5.8 -6.2°
Sets 00:46:15 0° 333° (NNW) 3,241 6.3 -6.7°
